Theta_e
326 326 326 325 325 324 323 321 321 321 320 320 320 321 323 324 325 325 323 322 321 320 320 321 321 320 320 319 318 318 319 321 323 326 327 328 328 328 329 328 328 327 325 324 320 316 313 312 312 314 314 314 314 316 319 319 318 320 324 326 324 324 324 322 321 321 320 320 319 319 320 319 318 318 318 318 319 318 319 320 321 319 319 327 335 336 333 329
326 325 325 324 323 322 321 321 321 320 319 319 319 320 321 322 324 325 323 322 322 321 321 322 322 321 321 320 319 319 320 322 324 326 327 327 327 328 328 328 326 325 324 323 319 314 312 312 312 313 314 314 315 317 319 319 317 320 325 325 324 324 322 320 319 318 320 320 318 319 319 319 319 318 318 317 318 318 318 319 320 320 320 325 333 335 333 329
325 323 323 322 321 321 321 321 320 320 319 318 318 319 319 320 322 325 325 322 322 322 322 323 323 321 320 320 320 321 321 324 326 327 327 327 327 327 328 327 323 321 322 321 317 313 311 311 312 313 313 314 316 317 319 320 319 319 321 323 324 322 319 318 318 318 319 319 319 319 319 319 319 318 318 317 318 317 317 318 319 321 320 323 328 330 329 329
324 323 323 322 321 321 321 320 320 319 319 318 318 318 318 319 321 324 326 324 322 322 323 324 324 323 322 320 321 322 323 325 326 327 326 326 327 326 327 326 320 317 317 318 316 313 311 310 312 313 314 314 315 317 318 320 319 318 321 323 322 320 318 318 317 317 319 319 319 318 319 319 318 318 318 318 318 317 317 317 318 321 320 318 321 323 323 325
324 324 324 323 322 322 321 320 321 319 318 317 317 318 318 319 320 323 326 325 323 322 323 324 325 325 324 323 324 323 324 326 326 326 325 325 327 326 328 326 319 316 315 315 315 313 311 310 312 313 313 314 315 317 318 319 320 319 320 320 319 318 318 316 316 317 318 319 319 318 319 319 318 318 318 317 318 317 317 318 318 319 320 317 316 318 319 320
324 324 323 323 322 321 321 321 321 319 319 319 317 317 319 319 319 322 325 325 324 322 323 325 325 325 325 325 325 324 325 327 323 323 325 324 326 327 328 326 319 317 316 314 315 314 311 310 312 313 313 314 315 317 317 318 319 319 320 318 317 318 317 316 316 317 318 319 319 318 318 318 317 317 317 317 317 317 317 318 318 319 320 319 316 316 318 318
324 324 323 322 321 321 320 320 319 319 320 320 319 318 319 320 320 321 324 326 324 323 323 324 325 325 326 325 326 325 325 325 318 318 322 323 325 326 326 325 319 317 316 314 315 313 311 311 312 313 313 314 315 317 316 317 318 318 319 318 317 317 316 316 315 316 317 318 318 318 318 317 317 316 317 317 317 317 316 316 317 319 321 320 318 316 316 317
325 324 323 322 321 320 319 319 319 319 320 320 320 319 319 320 321 321 324 326 325 324 323 324 325 325 325 325 326 325 324 324 319 316 319 322 324 324 325 324 319 317 316 314 315 313 311 311 312 313 313 314 315 316 316 317 317 317 318 317 316 316 315 315 315 315 316 316 317 318 317 317 316 316 316 316 317 317 316 315 315 320 322 321 319 317 316 316
324 323 322 322 321 320 319 319 319 319 319 320 321 320 320 320 321 321 323 325 325 324 324 324 325 325 325 326 325 323 323 324 321 317 318 322 324 324 324 322 319 317 315 315 314 313 312 311 312 313 313 314 315 316 317 317 317 317 317 317 315 315 314 314 314 315 315 316 316 317 317 316 315 316 317 316 317 317 316 315 314 318 323 323 319 315 316 316
324 322 322 321 320 319 318 319 318 318 319 320 320 321 321 320 321 321 322 324 324 325 325 324 325 325 325 326 324 322 323 323 320 317 318 320 322 324 324 321 318 316 314 315 314 313 312 311 312 312 312 314 314 315 317 316 317 317 316 315 315 315 314 315 315 314 315 315 315 317 317 315 315 316 317 317 316 317 316 316 315 315 318 322 320 317 315 315
323 322 322 320 319 319 319 319 318 318 318 319 320 321 321 320 320 321 321 322 323 325 324 324 325 324 325 324 321 320 321 321 319 316 316 318 319 322 323 320 316 315 314 314 313 312 312 311 311 312 312 313 313 314 316 316 316 317 316 315 315 315 314 315 315 314 315 315 315 316 316 315 315 316 316 316 316 316 316 315 315 315 315 318 320 319 318 317
323 321 321 319 319 318 318 319 318 317 317 319 320 321 321 320 320 320 320 321 322 324 324 324 324 322 324 322 319 319 318 319 319 315 314 317 319 322 322 318 316 315 314 314 313 312 312 311 311 312 312 313 313 314 315 315 316 316 316 316 315 315 315 315 315 315 315 315 315 316 316 316 316 316 316 316 316 316 316 315 315 315 315 317 318 319 319 318
322 321 320 319 319 318 317 317 317 317 317 318 319 320 320 319 319 319 319 319 321 322 323 323 321 320 321 319 318 318 316 317 319 317 314 315 319 320 318 317 315 315 314 313 313 313 312 311 311 312 312 312 313 313 314 315 316 316 316 316 316 316 315 315 315 315 316 315 315 315 317 318 317 316 316 316 316 315 315 316 316 315 315 318 319 319 318 317
321 321 320 319 319 317 317 316 316 317 317 318 318 318 320 319 318 318 318 318 319 320 322 320 319 320 320 317 317 317 313 313 316 319 315 314 316 315 314 313 312 314 314 314 314 313 312 312 313 312 311 312 313 313 314 314 315 316 316 317 318 317 316 315 315 314 315 314 314 315 317 319 317 316 315 315 315 314 315 316 317 316 315 317 320 321 318 316
320 320 319 319 318 316 315 314 316 317 316 316 316 318 319 318 318 317 317 318 318 319 319 319 319 319 317 314 314 315 313 312 314 317 316 314 314 313 312 311 311 314 315 314 313 312 312 312 312 311 311 312 313 313 314 314 315 315 317 317 319 318 316 315 315 314 315 314 313 315 317 318 316 315 314 315 314 314 315 315 316 317 316 317 320 322 320 316
320 319 319 318 316 314 314 314 315 315 315 315 316 318 318 317 317 316 316 317 318 318 316 315 315 314 314 312 312 313 312 312 313 315 314 314 314 313 313 311 312 314 314 314 312 312 312 312 311 311 312 312 312 313 315 315 315 315 317 317 318 318 317 316 314 314 315 314 313 314 316 316 315 314 314 314 314 314 314 315 315 316 317 318 319 319 318 318
320 319 318 316 315 314 314 315 315 314 315 317 317 317 317 316 315 315 316 317 317 315 312 310 310 312 314 311 311 312 310 311 313 313 313 315 314 313 313 311 312 313 313 312 311 312 312 311 311 312 312 313 313 313 315 316 315 315 316 317 318 317 316 316 315 315 315 315 314 314 315 316 315 314 314 314 314 314 314 314 315 316 317 318 318 317 316 316
319 318 317 315 315 315 315 315 316 316 317 317 316 316 316 316 315 315 316 316 315 312 311 310 309 314 315 312 311 312 311 311 313 313 313 314 314 314 313 312 312 312 312 311 311 311 311 311 312 312 313 313 312 312 314 316 315 315 316 316 318 317 316 317 316 315 316 316 315 315 314 316 315 315 314 313 313 313 314 314 314 315 316 316 317 317 316 315
318 317 316 315 315 315 316 317 317 316 315 315 316 315 315 315 315 316 315 315 313 312 313 310 310 314 315 313 312 312 312 311 312 314 313 313 314 313 312 312 312 312 311 311 312 311 311 313 313 313 313 312 312 312 314 316 315 316 317 316 318 318 315 316 316 314 315 315 316 315 314 314 315 315 315 314 313 313 314 314 315 315 315 315 315 316 316 315
317 316 315 315 314 315 317 318 316 315 314 315 315 315 315 315 315 315 315 314 313 313 313 310 311 313 312 312 313 313 312 310 311 313 313 313 313 313 313 312 312 312 311 312 313 311 311 314 314 312 312 313 313 313 314 315 315 316 316 316 318 319 316 315 316 313 313 315 315 316 316 315 316 316 315 314 313 314 314 314 315 315 315 315 315 315 316 316
316 316 315 314 314 315 317 317 315 314 315 315 315 314 315 315 316 316 315 313 312 311 311 311 311 311 310 311 313 314 313 310 310 312 313 313 312 313 313 312 312 312 312 313 313 312 312 314 314 312 312 313 313 313 314 315 315 315 316 315 316 318 316 314 315 314 313 315 316 316 316 315 316 317 316 314 313 314 314 314 314 315 315 315 315 315 316 316
316 316 314 313 314 315 316 316 314 315 316 315 314 314 315 315 315 315 315 314 312 310 310 310 311 311 310 311 312 313 312 312 311 311 312 313 312 312 313 312 312 312 312 313 313 314 313 312 313 312 313 313 314 314 313 315 315 316 317 316 317 318 316 314 314 313 313 314 316 317 316 316 316 317 316 314 314 314 315 315 315 315 315 315 315 315 316 316
315 315 314 314 315 315 315 315 314 315 316 315 314 315 316 315 314 315 314 312 311 310 310 310 311 311 310 311 312 311 312 312 312 312 311 312 312 312 313 313 312 312 312 312 313 314 313 313 312 312 313 313 314 314 314 315 315 316 317 316 317 318 317 316 314 314 313 313 315 317 317 317 316 317 316 315 315 316 315 316 315 315 315 315 315 316 316 316
314 314 314 314 315 314 314 314 314 316 315 315 314 315 315 314 313 314 313 310 310 310 310 310 310 311 310 310 311 311 312 311 312 312 311 312 313 312 313 313 312 312 312 312 313 314 314 312 311 312 314 314 313 314 315 315 314 318 320 318 319 319 319 318 315 313 313 313 315 315 316 318 316 316 316 315 315 315 316 317 316 316 315 315 316 316 317 317
313 314 314 314 314 314 313 313 314 315 315 314 314 314 314 313 313 314 312 312 311 310 310 310 311 312 310 310 311 311 312 312 312 312 311 312 313 312 313 313 312 312 312 313 313 314 314 311 310 314 314 315 315 314 316 317 314 316 321 321 318 318 319 317 315 314 314 315 317 314 315 320 320 316 316 316 317 317 316 317 317 317 316 315 317 317 318 318
313 314 313 314 314 313 312 313 314 314 314 314 314 313 313 312 313 314 313 314 313 311 310 310 311 312 311 311 311 311 311 312 312 311 310 312 313 312 312 312 312 312 313 313 313 315 313 309 311 317 316 317 318 315 317 319 314 314 320 322 318 319 321 317 317 319 317 317 317 314 316 320 320 317 316 318 319 318 317 316 315 316 317 316 316 317 317 317
313 314 313 313 313 312 312 313 313 313 313 314 313 312 312 312 313 314 314 315 315 312 309 310 311 312 312 311 311 311 311 312 312 312 311 312 313 312 311 312 312 312 313 313 314 314 312 310 314 317 317 319 318 315 317 317 314 317 323 324 320 321 323 321 319 320 319 318 316 315 316 317 318 319 318 319 318 317 318 318 316 315 315 316 316 315 315 315
313 313 313 313 312 311 312 313 313 312 313 313 312 312 312 312 312 314 314 314 314 311 309 309 310 312 312 311 311 311 311 312 312 312 311 312 312 311 311 312 312 313 313 313 315 314 313 314 316 317 318 318 317 318 321 317 315 320 324 323 321 322 323 323 321 319 318 318 318 317 316 316 319 320 318 318 317 316 317 318 316 314 314 315 315 315 315 314
313 313 313 312 312 312 312 312 312 312 312 312 311 312 312 311 311 313 314 314 312 310 309 309 309 312 312 311 311 311 311 312 312 312 311 312 312 311 311 312 311 312 312 313 317 317 314 313 313 317 318 317 317 319 323 323 318 319 321 322 324 324 323 321 321 321 317 318 322 321 317 316 319 322 317 316 317 317 317 317 316 314 315 315 315 315 315 314
313 312 312 311 312 312 312 312 311 312 312 310 310 311 310 310 312 313 314 315 313 310 309 309 310 311 312 311 311 311 312 312 311 312 311 311 312 311 312 312 311 314 317 318 318 315 311 309 311 315 315 314 314 314 318 321 318 317 320 322 322 322 321 319 320 320 317 320 323 320 318 315 318 324 320 316 317 318 318 319 318 316 315 316 315 315 314 313
312 312 311 311 311 312 312 312 311 311 310 309 310 310 309 310 312 313 313 314 314 312 309 309 310 311 311 311 311 311 312 312 311 311 311 311 311 310 312 313 312 317 319 319 318 314 312 311 312 313 310 310 314 314 315 316 316 318 322 321 319 318 318 317 317 317 318 322 318 316 319 317 317 323 320 315 317 317 318 320 319 317 315 315 314 314 313 314
312 312 311 311 311 312 312 311 310 310 309 309 309 309 309 311 312 313 314 313 314 312 310 309 311 311 311 311 311 311 312 312 311 311 311 311 311 311 312 313 314 315 314 315 318 317 316 315 313 313 310 311 316 317 315 315 317 320 321 318 319 319 317 317 318 318 319 319 313 312 317 317 316 317 315 314 315 315 317 317 317 316 314 314 314 313 313 314
312 311 311 310 311 312 312 311 309 309 309 309 309 309 311 312 312 313 313 313 314 312 311 311 311 311 311 311 312 312 313 313 311 311 311 312 312 312 313 314 314 314 314 315 317 317 317 316 314 315 313 311 315 316 315 315 316 319 318 317 321 320 316 317 319 318 317 316 313 313 315 317 317 315 315 316 313 314 315 315 316 315 314 314 313 312 313 314
311 311 310 310 311 312 312 310 308 309 309 309 309 311 313 312 312 314 313 313 313 311 311 311 311 311 311 312 312 312 314 314 312 311 312 312 312 312 313 314 314 315 315 315 316 316 317 317 315 316 314 313 315 316 317 317 316 318 319 319 320 319 318 318 318 320 321 317 312 312 315 319 318 316 316 314 311 312 313 314 315 314 314 314 311 311 313 314
311 310 310 310 311 311 311 310 308 309 309 309 310 312 313 313 313 314 313 313 312 311 311 311 312 312 311 313 313 312 315 315 313 312 313 313 312 312 312 312 313 315 314 314 315 314 315 317 316 314 313 314 315 316 317 317 316 317 319 319 320 320 322 320 317 319 322 319 316 314 318 320 318 317 317 313 312 312 311 312 313 313 313 312 311 311 312 314
310 310 310 310 310 310 310 310 309 309 309 310 311 312 313 313 314 314 314 313 312 312 312 311 312 312 311 313 314 313 314 316 315 314 313 313 313 313 313 313 313 314 314 314 316 315 314 316 316 314 313 313 312 312 314 315 316 318 318 319 319 320 323 322 316 314 316 319 319 316 318 318 315 316 317 315 315 313 312 312 311 311 312 311 312 313 313 313
310 309 310 310 309 309 309 309 308 309 310 310 311 312 313 314 317 315 313 313 312 312 312 312 313 312 311 313 314 314 315 316 315 314 314 314 314 313 313 314 313 313 315 314 315 317 317 315 314 316 317 313 308 310 312 311 314 319 320 319 316 316 319 318 315 315 315 315 316 316 316 316 314 315 315 314 315 315 314 312 310 312 312 312 313 313 312 314
310 310 311 310 309 309 309 309 309 309 311 311 312 314 314 316 318 316 313 313 313 313 313 313 313 312 312 314 314 314 315 315 315 315 315 314 314 314 313 313 314 314 314 313 316 320 319 316 313 314 316 313 309 312 314 311 311 315 316 316 315 316 317 315 313 317 318 315 315 316 315 315 316 315 315 315 315 315 314 312 312 314 313 312 314 313 312 313
311 311 312 311 310 309 309 309 309 310 311 311 312 314 317 318 318 315 314 313 313 313 313 314 313 312 314 315 314 314 314 314 314 315 315 314 314 315 313 314 315 314 312 312 318 321 317 318 317 313 313 314 313 314 315 314 312 312 312 314 315 316 317 317 315 317 320 317 315 316 315 320 324 319 317 317 316 315 313 313 314 313 313 313 314 313 312 313
312 313 313 312 311 309 308 308 310 311 312 311 311 313 317 318 316 315 315 314 314 314 314 315 314 313 314 315 314 314 313 314 314 314 315 314 313 314 313 314 315 314 312 314 319 319 315 319 321 314 312 314 315 315 315 316 314 312 313 313 314 315 314 317 317 317 318 317 316 315 316 325 325 316 316 316 316 317 314 314 314 311 312 313 313 313 312 312
313 314 313 312 311 309 308 310 311 312 312 311 311 314 317 316 316 316 316 316 316 315 315 317 315 313 315 314 314 314 313 314 314 313 315 314 312 313 313 313 314 314 313 314 317 317 315 317 319 314 313 314 317 316 315 317 317 315 314 313 314 315 315 316 317 318 317 315 318 316 318 328 323 314 316 315 315 318 314 313 314 312 313 314 313 313 312 312
314 315 314 312 310 308 309 311 312 311 312 312 312 315 315 314 315 317 316 316 317 317 316 318 316 314 316 315 314 315 313 314 314 314 315 314 313 314 313 313 312 312 313 313 315 317 318 320 318 315 315 314 315 313 310 313 318 317 316 316 315 315 315 316 318 321 318 313 315 315 318 330 325 313 314 313 311 312 310 312 314 313 314 315 313 313 312 311
314 314 313 312 310 309 310 311 312 312 312 313 315 316 314 313 315 316 316 316 317 318 318 319 318 316 316 316 316 315 314 314 315 314 314 315 316 314 312 312 312 311 312 314 315 314 316 320 319 316 315 313 313 313 310 312 316 317 316 317 317 315 315 316 319 321 319 316 317 314 315 324 323 312 309 309 308 308 307 310 313 312 313 314 313 312 311 311
313 313 313 311 310 309 310 310 311 312 312 313 316 316 315 314 315 315 316 316 316 317 319 320 320 318 318 318 316 315 314 314 316 316 315 318 317 311 309 311 312 312 312 313 314 313 314 318 319 317 317 315 315 315 314 314 314 316 317 315 316 318 317 316 317 316 317 321 322 317 316 322 323 316 312 310 310 309 307 308 310 311 312 312 313 313 312 311
312 313 312 311 310 311 312 311 311 311 312 314 316 316 316 316 315 314 316 317 316 316 317 318 318 319 320 319 317 316 315 315 317 318 317 320 317 311 309 310 311 312 312 313 312 312 316 318 318 317 317 316 316 315 315 316 314 315 316 315 315 319 318 316 316 315 317 322 320 316 319 322 317 314 314 314 313 312 310 308 308 311 311 311 312 313 312 312
311 312 312 311 311 312 313 313 313 312 312 314 315 315 316 316 315 314 316 317 316 316 316 317 318 318 319 318 317 317 315 317 319 318 317 320 318 312 309 309 310 311 311 312 311 312 317 318 315 315 315 314 315 316 317 318 316 315 316 316 316 318 318 316 316 316 318 321 320 318 319 319 315 313 314 314 314 314 312 309 308 310 312 311 311 312 312 312
310 312 312 311 311 312 312 312 313 313 312 313 313 314 314 315 314 315 316 316 315 316 317 317 316 316 316 317 317 317 316 318 319 317 316 318 316 312 309 308 310 310 310 310 311 313 317 317 315 315 315 314 315 316 317 317 316 315 316 316 315 316 318 318 317 316 316 318 318 318 318 317 315 315 315 315 315 314 312 309 308 310 312 313 312 312 312 313
308 310 311 311 311 312 312 312 313 313 312 312 312 313 314 314 314 314 315 315 314 316 317 316 316 316 316 316 317 317 317 318 317 317 317 317 315 313 312 310 309 308 309 311 311 314 316 315 316 317 315 315 319 321 321 318 315 315 315 315 315 316 317 317 316 315 316 317 315 316 318 318 315 315 317 316 314 312 311 310 309 310 312 314 314 313 313 313
305 308 309 310 311 311 311 311 312 314 313 312 312 313 314 314 313 313 315 315 315 315 316 315 316 316 317 316 316 316 317 317 316 317 318 316 315 315 314 312 310 308 309 312 312 312 314 315 316 316 315 316 321 322 322 319 317 316 316 315 315 315 315 316 315 314 315 316 315 315 318 319 317 317 317 314 312 311 311 311 310 310 312 314 314 314 313 313
303 305 307 308 310 311 311 311 312 313 313 312 312 313 313 313 313 313 315 315 314 315 315 315 315 316 317 317 315 316 316 316 317 317 317 315 315 315 314 314 313 310 309 311 312 310 314 316 316 316 315 316 318 318 318 320 319 318 318 318 317 316 316 315 314 314 314 315 315 315 317 319 317 316 314 313 312 312 311 311 312 311 312 313 314 314 313 312
302 302 305 307 309 311 311 311 311 313 313 312 311 312 313 313 313 313 315 314 313 313 314 315 315 315 316 317 316 316 316 317 318 316 314 315 314 314 314 313 313 312 311 311 312 312 314 316 316 315 315 316 318 317 316 318 317 315 318 321 320 318 316 315 314 314 314 314 315 315 315 315 315 314 314 313 311 310 310 311 311 311 312 313 313 314 313 313
302 302 304 307 309 310 310 311 311 312 313 312 311 312 312 313 313 314 315 315 315 314 313 315 316 315 316 317 316 316 316 316 317 314 312 313 312 312 313 311 310 311 312 312 314 314 315 316 317 316 315 316 316 314 315 316 314 313 315 319 320 317 315 315 314 314 314 314 314 315 314 313 314 315 316 315 311 309 310 310 311 312 312 312 313 313 313 313
Wind_Speed
54 54 52 51 49 47 44 41 40 39 37 36 35 34 33 32 32 31 31 32 31 31 31 31 31 32 34 36 37 35 33 31 25 23 23 19 17 15 13 14 14 14 15 12 8 6 3 4 3 6 8 7 7 9 8 10 9 4 2 2 4 4 4 4 4 5 7 7 7 14 17 11 8 8 7 6 6 7 9 8 6 6 7 10 13 15 16 20
53 56 54 51 47 45 43 40 38 37 35 35 35 34 34 33 32 31 32 32 31 31 31 30 30 31 32 33 36 36 31 27 24 25 25 18 17 17 15 13 13 14 14 12 8 3 2 6 4 9 11 8 8 8 8 8 9 6 2 3 4 3 1 4 7 7 7 11 11 14 15 11 11 13 11 7 7 9 7 8 9 7 10 13 14 16 15 18
47 51 50 48 45 44 42 38 37 35 34 34 35 35 34 35 34 33 33 32 31 31 31 29 28 29 28 30 31 30 28 23 23 26 23 19 19 19 18 14 11 11 12 12 9 4 2 8 7 12 12 10 10 9 8 7 7 9 6 2 4 3 5 9 13 9 9 15 14 13 13 10 14 15 12 8 9 10 7 10 14 11 14 16 16 16 15 18
42 45 45 44 43 42 40 37 36 35 33 32 34 34 34 36 35 34 33 33 32 31 31 29 28 27 26 28 27 26 25 17 20 26 21 20 23 22 22 16 8 6 7 10 10 6 3 9 8 12 13 10 12 10 7 8 6 6 6 2 3 4 6 8 13 10 10 15 13 13 11 8 13 13 11 9 7 7 9 13 17 16 17 17 17 16 15 19
44 44 43 42 42 41 38 36 36 34 32 33 34 34 34 36 36 35 34 33 33 32 32 30 29 27 26 27 25 25 22 8 11 23 19 18 26 27 26 19 11 6 5 8 11 8 5 9 7 11 13 9 10 8 6 12 9 4 3 0 6 5 5 6 11 11 10 12 14 13 9 9 11 8 11 11 5 4 6 11 15 17 17 16 17 16 15 18
47 45 43 42 40 39 37 35 35 32 29 32 34 34 33 35 37 36 34 34 34 33 33 32 30 28 26 25 24 25 21 5 1 15 19 18 23 27 27 22 16 11 8 9 12 10 7 8 7 10 11 8 7 7 7 13 10 4 3 2 7 7 6 6 10 12 10 11 13 11 9 11 10 6 11 12 5 6 7 11 13 13 13 14 15 15 15 18
44 44 45 42 39 38 35 33 32 29 29 30 32 34 33 34 36 35 35 34 34 34 34 33 30 28 27 25 24 24 23 13 2 3 13 20 21 22 25 24 18 14 10 11 15 11 8 8 8 12 11 7 7 9 11 13 9 5 2 3 5 7 7 6 10 12 10 9 10 11 10 11 9 6 10 11 6 7 6 9 11 10 11 13 13 13 13 15
43 43 45 43 40 37 34 31 30 30 31 31 30 32 33 34 34 34 34 34 35 35 34 33 30 28 27 27 24 20 23 23 7 3 7 19 24 20 23 25 20 16 11 13 17 11 9 11 11 13 9 7 9 9 13 12 7 7 2 3 5 7 6 6 11 12 9 8 9 11 9 8 8 6 8 11 8 7 5 7 10 12 13 13 12 12 12 14
46 45 44 42 39 36 33 32 31 32 33 32 31 30 31 32 32 33 34 34 34 35 34 33 29 28 27 27 24 15 20 25 12 4 4 12 22 22 24 24 22 19 13 15 19 10 10 12 12 12 9 10 13 7 14 11 5 9 5 5 6 7 7 7 10 10 8 7 9 9 6 5 5 4 5 11 11 10 9 8 9 12 15 14 12 12 13 15
49 45 42 39 37 36 34 34 33 33 34 34 32 29 30 32 32 31 32 33 33 33 33 31 28 29 28 27 22 10 16 22 14 10 7 10 17 21 25 24 22 20 14 18 21 12 12 13 12 11 12 12 15 7 10 8 3 7 10 9 7 7 6 6 8 10 7 7 8 6 5 4 3 3 3 10 14 13 12 12 10 11 14 14 13 13 14 15
50 45 41 38 36 36 35 34 34 33 34 34 33 30 29 31 32 30 30 31 30 31 31 29 27 27 28 28 21 9 13 20 17 11 10 13 15 19 25 24 22 23 19 20 23 15 14 15 13 12 10 7 9 7 4 5 3 9 16 10 5 6 5 5 8 10 7 6 7 3 5 5 3 2 4 12 18 15 15 14 14 14 13 13 13 14 14 15
49 45 41 38 36 37 36 34 33 34 35 35 33 30 29 30 30 29 29 29 29 29 28 28 26 25 27 27 20 14 11 17 20 14 9 13 15 17 24 23 20 25 24 21 23 16 17 17 16 14 10 7 6 4 3 6 2 9 13 6 4 4 3 4 6 9 6 4 8 4 3 2 4 7 9 14 17 16 15 13 14 15 15 14 14 15 16 16
48 45 41 38 38 37 36 35 33 34 35 36 34 29 28 28 29 28 28 28 27 27 28 28 26 25 26 21 18 18 10 11 19 18 12 12 16 18 21 18 15 21 24 22 23 17 20 17 18 17 14 11 7 5 3 5 4 7 7 3 5 3 3 5 5 7 4 4 9 4 1 4 8 14 14 13 14 15 15 13 14 15 16 16 15 17 17 17
47 43 41 39 39 38 36 35 34 35 36 36 35 30 26 26 28 27 26 27 28 28 28 28 28 28 23 14 15 19 10 6 16 22 19 17 19 20 16 14 17 21 23 24 22 17 19 15 17 18 16 14 10 8 3 2 3 4 5 3 4 2 3 5 6 8 3 3 9 4 0 5 4 11 15 14 14 14 14 14 14 14 16 18 17 19 20 19
45 41 40 38 38 37 35 35 35 36 36 35 36 32 27 26 26 25 25 27 28 28 29 29 29 27 18 9 12 18 14 8 14 22 21 21 23 21 14 13 20 24 23 25 19 20 19 12 13 14 13 13 11 8 2 2 2 3 4 3 4 3 3 2 4 8 2 3 8 4 1 5 2 8 12 14 14 14 13 12 14 14 15 19 20 20 21 20
43 41 40 39 38 36 34 36 36 36 36 36 37 33 28 25 23 24 26 27 26 28 29 31 31 23 10 6 10 19 19 12 15 19 20 24 25 21 14 11 19 24 22 22 18 22 19 11 11 12 10 8 6 5 3 3 3 3 4 3 4 5 4 1 2 5 2 4 6 4 2 3 2 6 10 12 14 13 12 12 14 15 16 18 20 21 21 21
43 43 41 40 38 35 36 37 37 38 38 38 36 31 27 24 23 24 25 26 26 28 27 27 29 18 5 7 11 20 25 18 17 20 20 25 26 21 15 12 18 22 20 18 19 20 16 11 9 8 8 5 4 4 4 4 4 3 4 3 4 5 5 3 1 3 4 3 4 5 3 3 4 8 10 11 13 13 12 13 13 14 16 17 18 19 21 22
45 43 41 41 37 37 40 39 40 40 38 37 32 29 26 23 24 25 27 27 26 24 16 18 24 11 6 14 14 19 28 23 18 21 22 26 26 22 16 14 18 18 16 14 14 14 12 10 8 4 5 5 5 6 5 4 5 4 4 3 3 4 5 5 2 4 8 4 4 6 5 7 5 8 11 12 13 13 13 13 13 13 15 16 17 17 18 21
45 43 41 41 39 42 42 42 44 38 36 35 31 31 27 25 25 24 28 30 30 19 6 21 29 5 2 17 17 18 27 26 18 18 23 28 26 21 16 16 20 18 13 8 8 13 11 6 6 4 5 6 7 8 7 4 5 7 7 5 5 4 3 4 2 3 7 4 4 7 7 9 8 6 9 12 14 15 14 13 13 14 15 16 17 18 18 19
44 42 42 41 42 45 43 43 41 35 37 36 38 39 31 30 21 16 28 33 36 21 2 27 35 2 5 21 22 19 23 24 19 17 21 27 27 21 17 18 20 16 10 6 5 11 12 5 4 6 6 8 9 9 9 6 4 5 9 7 6 6 3 2 2 2 2 3 5 7 7 7 8 6 9 16 17 14 15 14 14 15 15 16 17 18 18 18
43 42 44 42 45 45 43 42 36 37 39 38 47 42 34 39 18 17 36 28 29 17 1 30 35 5 10 25 26 25 24 20 19 19 18 22 25 19 16 17 13 9 8 10 7 7 10 6 6 8 8 8 9 11 10 5 6 4 7 8 6 5 2 2 2 3 2 1 5 8 7 8 8 6 7 13 15 13 17 17 17 18 17 17 18 19 19 18
43 43 44 44 47 45 44 41 36 41 39 41 50 32 31 40 12 23 42 16 16 11 2 33 30 5 14 23 25 27 24 17 14 20 20 21 23 15 15 15 7 6 8 10 8 5 7 6 7 10 10 6 5 11 8 3 4 5 2 6 5 4 4 3 2 3 3 1 2 4 5 8 8 7 8 11 12 15 22 22 21 21 20 20 20 20 21 19
44 45 46 47 47 45 45 42 40 42 39 47 46 22 26 26 5 28 41 15 11 8 10 36 24 7 16 19 22 21 18 17 13 20 24 23 22 15 15 13 7 8 9 9 7 5 5 5 7 9 10 6 4 6 6 2 3 4 2 3 4 5 4 1 1 3 2 1 1 1 3 5 6 6 8 16 21 19 21 24 23 24 23 23 22 21 22 22
45 46 47 47 46 44 44 42 42 42 41 48 37 18 23 19 13 37 33 13 10 6 14 34 20 9 14 16 22 18 14 17 16 22 27 26 23 15 13 14 9 8 9 11 9 6 5 3 4 5 8 9 4 2 5 3 3 4 3 2 2 5 4 2 4 4 1 1 1 2 4 4 6 7 7 13 20 19 20 22 22 23 24 22 21 21 21 22
46 47 47 47 44 42 42 41 43 41 42 46 31 18 23 24 31 38 21 10 9 5 11 24 18 14 12 15 22 18 12 13 16 26 30 29 26 14 11 14 10 8 10 12 10 6 6 3 2 3 6 9 6 3 5 5 3 4 4 3 2 4 7 7 7 5 2 2 3 3 1 6 5 10 10 8 10 13 15 18 19 23 23 23 24 22 21 21
48 48 47 45 41 42 42 43 45 40 41 45 30 21 28 35 38 30 14 6 4 5 8 14 15 16 15 16 21 18 11 9 15 28 32 30 27 17 10 9 5 6 11 10 6 3 3 2 1 4 6 8 6 5 5 5 4 4 4 2 1 6 9 9 8 5 3 3 3 3 4 5 4 5 9 7 8 9 10 11 16 21 22 24 27 26 25 25
47 47 47 43 42 46 46 44 46 42 41 43 30 24 33 42 38 24 11 3 4 8 8 10 12 15 16 17 23 16 5 10 14 23 33 30 26 17 9 7 3 3 5 5 4 1 2 3 1 2 4 5 5 4 5 7 5 3 3 2 4 9 8 8 8 4 2 2 2 1 2 2 4 5 3 6 8 6 7 8 12 18 21 23 24 25 26 27
47 47 45 42 44 47 43 42 47 45 42 40 31 28 37 45 36 18 5 1 5 9 9 9 9 15 18 20 25 10 4 17 12 14 31 29 22 13 5 9 8 3 2 4 6 1 2 5 3 3 4 3 4 2 4 8 5 3 3 3 2 7 7 7 6 3 0 3 1 4 2 1 4 5 2 4 5 5 8 9 11 16 21 20 18 19 21 23
47 46 44 43 46 42 34 36 46 45 38 35 31 34 42 42 24 6 1 3 6 6 9 12 9 14 19 20 20 9 7 14 6 11 28 24 18 10 3 9 11 7 5 3 4 0 1 2 2 3 4 3 3 2 2 4 3 4 3 1 4 4 4 4 5 3 2 0 3 6 5 2 4 5 3 2 3 6 9 8 8 14 18 16 16 16 17 19
47 46 44 45 47 39 28 32 42 41 36 33 35 41 42 29 11 3 4 4 5 5 10 13 11 15 19 14 11 9 7 5 6 18 22 16 15 8 4 10 10 7 5 6 5 1 1 2 2 1 2 2 3 3 4 1 4 7 4 4 6 5 4 2 1 4 2 2 3 4 4 2 3 5 5 4 4 5 6 4 5 10 14 13 13 13 13 14
46 46 45 47 49 38 29 35 43 40 34 33 39 43 32 13 3 3 5 5 6 5 8 11 11 15 18 13 8 9 6 3 9 19 14 9 10 6 6 8 6 5 3 3 4 1 2 2 1 1 1 1 3 2 5 3 5 6 3 4 4 3 4 4 3 3 2 4 3 3 3 1 3 5 3 3 3 2 3 5 6 8 11 12 10 9 10 11
46 45 44 47 47 34 28 37 44 41 33 33 41 38 20 6 3 4 5 8 6 5 7 11 14 14 15 13 9 9 7 4 9 14 10 8 7 6 6 5 4 4 3 3 3 2 3 2 1 1 0 3 3 2 4 4 1 1 3 6 4 1 1 0 2 1 3 3 3 3 3 1 5 6 6 5 4 3 3 5 10 11 12 11 9 8 8 8
47 45 45 47 42 30 26 35 44 41 33 35 38 24 8 5 8 7 6 6 6 8 11 12 15 15 14 12 8 8 7 5 9 11 10 10 7 7 7 6 8 6 4 5 3 2 1 1 1 2 1 5 4 2 3 1 3 3 5 6 4 4 3 3 3 2 3 2 4 4 2 2 3 6 9 8 6 8 8 10 13 14 13 11 8 6 6 7
47 46 47 46 38 29 26 36 45 38 34 38 30 12 6 7 8 9 8 5 5 10 13 13 15 16 15 11 8 10 6 4 9 10 9 9 8 8 8 8 11 7 4 5 4 5 4 2 2 2 1 5 5 2 2 4 4 5 4 5 4 4 4 4 4 3 3 0 2 3 1 3 3 3 5 3 3 8 11 13 14 13 12 10 6 5 6 6
46 47 48 43 36 29 28 40 44 36 38 37 18 6 9 9 7 8 9 5 5 9 13 16 16 15 12 8 10 11 4 3 9 8 7 9 8 8 8 8 11 8 6 6 4 5 7 4 1 1 2 2 4 1 1 3 4 4 1 3 3 4 4 3 2 3 5 2 0 2 2 4 4 3 4 5 6 7 10 11 13 12 10 9 6 5 7 7
46 47 47 41 37 30 31 42 41 37 41 29 9 7 10 7 5 7 6 6 7 11 15 16 12 12 11 6 10 10 1 2 10 7 7 9 7 9 9 7 11 11 7 7 3 3 6 3 3 3 3 2 0 1 2 1 2 2 2 3 4 2 6 5 1 0 3 1 2 3 3 4 3 4 3 6 5 4 6 8 11 12 11 9 7 6 8 9
47 47 43 39 37 31 33 41 39 39 38 20 8 10 7 3 3 4 7 10 12 14 15 12 9 10 11 7 9 12 5 4 8 5 6 7 6 10 11 8 13 14 9 7 3 2 5 2 3 1 1 2 3 2 1 1 2 3 3 4 2 1 3 3 1 1 2 1 2 3 4 4 2 3 1 4 5 6 6 7 9 12 12 11 9 8 10 10
47 44 36 33 34 32 35 39 38 38 28 12 9 10 4 2 1 4 12 13 15 16 12 8 8 9 11 9 8 11 10 7 7 5 6 6 4 10 12 8 12 17 12 7 3 3 5 3 2 1 0 1 3 1 2 0 2 3 2 1 2 1 1 1 2 2 2 2 3 3 5 4 4 4 2 5 8 7 7 7 8 10 12 14 12 11 12 12
44 34 25 27 32 31 35 38 37 32 18 9 11 8 3 3 2 4 17 18 13 14 10 8 9 8 10 10 10 12 11 10 9 6 5 5 3 8 14 8 8 16 15 7 3 4 5 3 1 2 1 1 2 1 4 3 0 1 2 3 2 1 2 2 3 3 3 3 3 2 2 3 5 6 6 8 9 9 9 8 7 11 15 17 15 14 14 15
38 22 15 27 32 30 36 37 30 20 11 9 10 5 4 4 1 2 15 18 10 7 8 9 10 10 10 11 11 11 10 10 11 7 5 7 4 5 11 9 7 12 12 6 4 3 3 3 2 1 2 1 1 2 5 5 4 2 1 1 2 1 1 1 3 2 3 3 3 2 2 5 6 4 4 7 7 6 8 8 8 12 16 18 17 15 15 16
30 12 13 29 32 33 38 29 17 11 8 7 7 4 5 6 4 2 7 11 6 2 3 7 10 9 9 11 12 10 8 8 10 8 5 8 8 4 7 11 11 10 8 5 4 3 1 2 4 3 1 2 2 2 1 3 3 3 3 4 5 4 3 1 3 1 2 2 3 3 3 6 5 2 2 4 5 4 5 8 10 13 16 18 18 17 15 17
19 6 18 34 34 40 37 18 8 9 6 6 5 4 7 8 6 4 4 6 5 3 1 4 8 9 7 8 10 10 9 7 9 9 6 8 10 5 7 15 20 17 10 5 3 2 3 4 5 3 2 2 1 0 1 1 1 2 2 2 3 4 4 4 4 3 1 1 1 2 1 5 5 2 4 3 5 5 6 8 10 12 15 17 18 18 17 17
12 12 24 33 37 43 30 9 7 7 4 6 6 6 7 7 5 5 4 4 3 1 1 3 4 7 7 7 9 11 11 7 8 10 8 7 7 2 5 16 23 18 10 5 3 2 3 4 4 3 1 2 2 0 1 1 0 1 3 3 3 5 6 5 4 3 3 2 2 2 3 5 5 2 3 2 2 3 4 7 9 10 13 16 18 19 19 19
16 24 27 31 38 39 22 8 11 10 7 8 7 5 5 4 6 8 6 5 4 3 3 2 2 3 4 4 7 11 12 7 5 8 6 5 5 1 2 16 23 14 7 8 9 7 4 2 4 4 3 1 1 1 1 2 3 2 4 5 4 3 5 3 1 1 1 4 6 5 4 6 5 3 2 2 2 3 3 5 8 9 11 15 17 19 20 20
12 18 23 32 38 30 13 6 9 10 9 9 8 7 6 4 5 9 9 5 3 3 3 2 2 4 4 5 5 7 11 6 3 5 4 3 3 2 1 13 18 11 7 10 15 14 7 3 5 5 5 5 5 5 4 3 2 1 2 4 5 4 6 5 2 2 3 5 6 5 5 6 4 3 2 3 4 4 4 5 8 9 10 13 17 19 20 21
3 5 13 23 28 23 11 4 5 8 11 11 8 9 10 6 3 5 8 5 1 3 4 2 4 6 5 6 7 6 10 5 3 5 5 4 2 2 1 6 8 6 5 9 17 15 4 2 7 8 9 10 8 7 6 6 5 5 7 9 9 9 9 7 4 5 6 4 4 6 7 7 6 3 4 5 5 6 5 7 10 11 11 13 17 19 20 22
1 2 9 12 14 15 11 7 6 8 12 14 8 9 13 10 5 4 4 3 3 5 4 3 4 6 7 11 8 7 10 5 4 6 8 5 3 2 2 3 3 4 3 8 17 12 3 3 8 10 12 11 9 8 9 10 11 13 14 14 14 12 11 9 7 9 9 6 6 9 8 9 8 5 6 7 6 5 6 10 14 14 15 15 17 19 20 22
0 1 9 12 9 9 9 10 13 11 13 15 8 8 14 12 11 9 2 2 6 7 2 1 5 9 12 13 8 6 9 6 3 6 6 5 4 3 4 3 1 1 1 5 11 6 3 6 7 8 11 9 6 6 9 12 12 12 14 15 15 13 12 11 13 14 9 7 10 11 10 11 9 6 7 8 8 9 11 13 13 14 16 16 17 19 21 22
1 2 6 11 5 5 7 8 10 9 11 14 8 8 15 14 14 12 5 5 6 5 4 6 7 9 11 11 8 7 9 9 7 6 5 6 5 4 3 1 0 1 2 2 4 2 2 4 5 7 10 8 5 4 6 10 11 10 11 13 13 13 14 15 16 17 13 11 13 12 9 9 7 7 8 9 11 13 11 11 12 14 18 18 18 20 22 23
1 3 3 7 1 4 11 10 9 8 8 11 10 8 12 15 15 12 6 8 10 7 7 9 11 11 10 10 9 8 10 11 9 7 6 7 5 3 3 3 3 2 2 1 0 1 2 2 2 5 5 6 2 1 1 2 6 8 9 9 10 12 14 15 15 15 12 11 14 11 8 8 7 8 8 8 11 11 10 12 14 16 18 19 19 21 22 24
3 2 2 5 1 4 11 10 9 9 7 9 11 10 12 15 17 12 6 9 12 11 10 10 11 9 8 10 11 9 10 10 9 14 18 14 11 10 6 6 8 7 3 3 1 2 3 1 2 4 4 4 1 1 1 4 4 2 5 7 11 12 13 14 14 13 11 11 12 10 9 10 7 8 8 8 11 13 13 15 16 15 17 19 21 23 24 25
3 1 1 5 2 1 6 9 9 9 9 10 11 12 11 13 15 13 7 6 7 11 14 13 11 9 7 10 11 7 9 9 8 19 25 16 13 15 10 11 17 14 7 5 3 2 6 5 2 2 5 3 4 1 4 6 4 4 7 10 14 13 12 11 10 12 12 11 10 9 11 13 7 8 8 7 9 11 14 17 17 17 20 21 22 24 25 25
Wind_Direction
211 207 202 198 200 200 201 201 203 206 204 204 206 206 205 205 209 206 205 205 205 205 206 208 210 212 214 212 210 209 211 217 228 240 239 230 221 220 214 214 214 212 210 205 205 201 230 277 303 319 298 291 265 246 252 237 225 218 205 222 234 236 206 187 165 133 135 135 146 163 156 139 144 164 159 143 134 127 133 137 149 157 140 127 133 154 168 173
202 198 198 195 196 197 198 199 202 208 207 206 206 206 205 205 209 206 205 205 203 203 204 207 208 213 215 212 209 208 212 220 234 243 239 230 221 220 214 216 216 208 206 200 198 182 297 286 300 316 290 268 259 236 237 227 208 213 215 224 238 232 340 53 91 89 112 145 155 163 168 156 155 165 163 166 164 155 154 156 160 154 142 143 151 164 174 180
198 192 193 192 195 197 197 198 202 208 208 208 208 207 205 205 208 206 204 203 201 201 202 204 206 211 209 204 204 205 213 225 241 243 236 228 223 221 216 215 215 206 199 195 194 168 295 290 293 308 285 251 250 234 226 221 204 220 220 255 245 144 54 49 82 75 93 137 148 157 175 162 151 161 167 181 172 171 187 169 164 164 160 160 167 178 182 184
198 193 194 192 194 197 196 197 202 208 208 209 210 207 204 204 207 206 204 202 200 201 200 201 203 203 201 200 203 208 215 227 245 239 230 224 222 222 217 208 197 203 202 197 196 179 265 283 277 300 287 249 240 239 229 210 199 216 208 248 279 124 86 63 89 93 102 132 144 148 164 144 141 157 170 188 175 175 209 193 181 182 181 177 178 188 190 187
199 193 191 192 194 196 196 195 201 209 208 208 209 207 204 204 207 205 204 202 200 200 199 200 200 198 198 200 203 208 210 219 249 231 219 218 220 220 215 203 185 197 230 216 195 184 268 275 260 294 288 258 230 227 238 219 210 239 228 10 353 24 94 96 104 110 112 130 135 140 157 142 140 156 174 194 194 157 189 182 179 188 192 188 187 192 193 190
198 194 190 191 193 194 195 194 201 206 203 205 207 204 201 202 205 205 202 200 200 199 199 199 199 198 196 196 200 204 202 184 228 216 214 214 217 217 210 198 188 198 223 220 189 184 271 274 258 281 272 259 229 206 233 226 212 247 245 107 20 32 101 122 120 115 115 130 133 147 159 144 147 164 187 204 187 128 138 148 156 172 186 190 190 192 193 194
192 193 191 192 193 192 193 194 198 198 195 201 205 201 197 198 203 204 200 199 199 198 200 201 200 199 194 192 195 196 197 200 137 193 223 215 213 214 202 190 190 203 212 203 182 185 268 270 253 264 260 257 233 211 222 222 208 236 257 115 65 70 103 132 137 125 117 122 129 153 153 149 169 174 190 204 164 133 136 149 155 155 171 185 189 194 197 198
193 192 192 192 193 192 190 191 191 190 192 197 200 200 199 198 201 201 198 198 198 198 200 201 201 199 196 194 186 180 197 208 203 347 258 212 207 206 193 185 188 206 208 185 178 188 263 264 250 254 256 250 242 216 204 208 213 233 255 116 110 93 110 129 143 138 125 123 124 145 141 146 176 156 179 202 181 175 179 160 162 159 170 188 195 198 201 201
193 191 189 188 191 190 186 187 186 188 192 194 195 197 199 199 198 198 198 198 197 198 199 200 201 198 199 197 180 173 207 206 192 232 258 200 201 199 192 188 187 205 209 180 179 200 256 256 246 251 271 276 277 246 181 188 232 220 190 129 124 109 126 126 135 141 133 138 134 145 132 117 166 147 197 215 194 195 199 178 166 162 172 189 203 204 204 204
189 187 185 185 187 185 183 185 185 187 191 193 193 192 195 198 197 194 196 198 197 197 198 198 199 199 201 192 173 175 216 202 185 205 206 185 199 198 194 191 190 199 200 183 184 208 258 250 238 264 292 292 291 286 171 180 278 184 140 110 118 112 128 135 133 140 130 137 152 162 132 103 167 171 235 205 186 196 201 191 185 176 175 185 200 207 206 207
188 186 184 184 185 183 182 183 183 187 191 193 192 189 191 196 195 193 194 196 196 196 196 196 197 201 197 182 172 183 206 196 187 190 185 187 202 205 197 190 190 191 188 187 185 203 263 254 244 273 292 295 295 302 194 207 326 136 130 103 116 113 114 139 134 145 135 133 165 156 107 110 128 173 214 180 180 198 199 196 199 197 193 190 197 205 207 209
187 185 184 184 183 182 181 182 183 187 191 192 190 189 193 196 195 193 193 193 193 193 193 192 193 191 182 177 182 188 194 195 188 178 175 192 196 197 192 183 185 186 184 186 182 206 267 257 246 265 273 295 300 302 244 225 239 146 146 112 138 137 130 159 144 161 161 148 164 120 80 146 177 214 214 185 185 194 190 196 202 201 200 199 203 204 208 210
184 183 184 183 181 181 182 183 184 187 191 191 190 189 193 196 195 193 191 191 189 189 188 187 187 179 172 181 193 188 195 204 194 188 179 181 176 171 177 180 192 193 187 182 179 217 269 258 243 254 267 291 295 291 291 215 185 171 187 153 149 170 194 173 146 164 155 154 169 129 94 225 215 210 203 190 192 188 184 194 204 207 199 197 204 206 211 212
182 183 184 182 181 182 183 183 184 187 188 190 192 192 191 192 194 191 187 187 185 185 186 183 180 175 172 189 198 190 199 208 198 196 185 175 165 158 169 187 195 195 189 178 180 228 264 259 246 249 263 276 278 289 310 202 186 180 220 209 159 172 193 167 154 170 138 159 179 131 223 250 217 181 179 180 186 179 178 186 199 210 202 197 201 205 213 216
181 183 182 181 181 181 182 183 183 185 186 187 190 190 187 187 192 191 185 182 179 182 182 174 171 170 172 197 202 195 202 201 190 193 188 178 166 162 179 186 176 181 183 174 189 240 252 254 246 240 261 265 258 273 259 203 241 187 207 210 187 177 161 153 174 186 160 157 187 156 215 259 74 134 167 177 183 182 181 188 197 204 204 202 203 207 214 218
182 182 182 181 180 179 181 181 182 184 184 184 184 184 182 185 193 191 182 174 172 178 174 168 165 159 168 200 191 193 202 202 183 184 184 179 172 169 181 175 160 169 177 179 210 243 242 245 240 230 253 256 228 248 237 201 226 212 203 187 194 187 157 170 240 223 187 134 194 224 238 240 127 146 176 182 189 193 193 202 203 200 203 205 209 214 215 218
182 181 181 180 176 176 176 177 179 180 179 177 175 175 176 184 190 181 172 168 167 168 165 166 164 154 184 203 180 189 198 199 181 176 175 177 183 185 187 175 161 170 182 198 227 237 232 230 224 226 241 237 193 214 230 206 206 213 197 202 211 188 160 161 302 259 205 165 200 225 251 241 175 161 183 194 193 196 201 210 212 204 202 206 213 219 220 219
180 180 179 176 173 172 173 174 173 172 172 171 168 169 173 179 179 168 162 159 153 149 147 164 164 155 219 200 186 189 195 196 178 173 175 175 187 197 196 179 171 178 185 203 225 218 216 211 198 218 226 218 207 203 217 203 189 183 183 210 209 184 169 163 186 195 186 211 202 184 231 252 215 167 184 197 190 194 206 212 216 215 209 208 212 217 222 223
179 179 177 173 173 172 172 171 168 169 167 165 164 164 163 161 158 156 157 155 151 148 157 178 173 160 243 181 177 183 193 193 173 170 177 175 181 193 188 173 178 181 173 184 209 196 195 187 183 216 216 211 213 210 221 217 193 183 184 199 185 185 195 152 158 189 163 186 206 183 208 238 238 203 184 191 192 194 203 208 211 214 215 212 213 216 219 223
177 177 175 172 174 173 172 170 168 171 169 166 162 156 153 152 145 153 166 168 167 162 206 180 176 122 81 158 162 169 184 188 178 171 176 179 180 181 172 164 173 179 169 164 188 191 187 182 201 209 216 216 216 222 225 233 255 204 183 201 199 181 195 127 108 256 173 166 215 215 220 232 237 231 195 187 189 194 199 205 210 211 213 213 214 217 219 222
175 176 176 175 175 175 175 172 172 173 172 173 165 157 159 159 151 173 171 176 180 170 340 178 174 128 134 159 163 170 173 174 184 181 174 181 178 169 163 160 164 175 179 169 159 177 186 204 220 204 223 228 217 228 233 244 288 266 182 188 209 186 164 61 104 203 207 147 220 221 233 247 237 248 240 192 180 195 202 204 212 214 214 216 218 221 222 224
174 175 176 176 175 176 176 175 175 172 172 174 167 162 167 161 160 175 160 153 186 182 187 174 172 134 152 164 165 170 168 156 176 185 176 174 171 166 165 165 166 163 178 178 155 159 194 219 218 205 225 250 232 222 227 251 285 299 203 173 206 189 120 58 64 162 177 163 236 200 219 252 245 239 250 224 201 203 207 211 218 217 217 219 221 225 224 222
174 174 175 175 174 176 176 177 176 172 173 172 165 159 171 170 210 167 149 119 163 162 164 172 170 135 149 164 165 163 163 159 164 178 179 172 169 175 172 169 179 165 177 200 177 168 200 218 225 218 218 237 271 212 191 213 272 298 289 168 191 171 135 130 186 162 187 174 57 2 260 259 256 241 236 232 226 219 217 221 223 222 223 221 221 226 225 220
173 174 175 174 174 176 177 176 175 173 174 173 164 150 168 176 162 153 139 105 136 120 162 172 175 165 149 157 171 167 164 169 171 176 179 173 170 177 178 171 175 174 186 202 191 188 204 208 230 233 215 214 239 207 179 182 233 266 250 213 204 173 140 90 146 142 13 332 104 4 321 281 230 225 237 228 223 223 221 218 217 220 221 220 219 220 220 218
172 174 175 174 174 176 175 174 175 175 176 177 169 148 162 163 148 145 128 98 135 115 157 171 181 191 170 157 172 172 158 164 175 180 179 176 173 171 182 181 178 184 189 193 193 196 210 209 193 199 203 205 203 205 200 179 206 256 229 224 264 166 124 106 131 126 71 268 228 132 330 286 226 209 228 218 206 214 209 203 206 211 213 213 215 214 212 211
172 174 175 175 175 173 170 172 176 176 176 181 172 144 157 158 149 146 128 103 163 144 147 173 180 189 185 169 167 162 156 169 177 181 180 180 179 170 174 184 173 187 180 179 195 203 186 148 152 196 185 190 196 210 204 176 194 248 239 234 108 113 118 132 150 140 133 216 262 129 166 264 282 234 228 194 186 206 197 200 211 212 214 216 219 221 219 217
173 175 175 176 176 171 168 170 176 175 178 181 169 150 160 159 156 156 134 87 198 154 146 172 176 184 185 172 165 156 152 166 164 180 181 180 184 180 180 175 142 201 171 143 183 218 107 122 329 231 166 171 190 211 204 180 188 242 284 312 108 120 131 153 161 172 176 139 359 345 169 244 293 282 250 152 166 207 206 215 223 218 220 223 225 228 228 228
174 176 175 174 174 171 168 170 174 175 178 178 168 161 163 163 166 169 141 121 164 144 150 162 166 179 173 166 171 169 135 156 152 183 182 180 185 188 204 185 165 159 105 139 184 228 76 151 185 170 146 170 186 236 217 181 184 243 273 314 109 133 145 158 160 177 122 89 310 263 199 231 265 258 272 122 158 217 224 220 218 214 214 213 214 220 224 227
174 176 175 172 171 168 168 173 174 174 175 173 167 163 164 166 169 168 189 181 140 133 157 154 151 164 161 164 177 182 149 161 152 169 178 182 184 188 224 187 162 121 70 91 157 262 15 155 171 156 160 176 159 1 314 194 191 205 201 40 47 82 112 148 162 140 79 90 230 222 189 189 272 244 207 159 194 221 229 226 203 193 192 192 197 207 217 222
175 175 174 172 170 165 166 175 176 172 168 167 164 162 163 164 161 154 203 187 137 148 153 149 155 159 156 159 177 179 160 154 123 148 167 180 179 185 168 159 145 113 72 60 96 139 356 67 36 85 157 161 128 53 357 336 145 142 145 86 57 47 51 44 109 100 98 250 238 221 193 162 279 259 198 185 220 212 205 192 149 155 164 175 191 203 216 224
175 174 174 172 169 163 160 170 176 172 166 166 164 160 159 158 171 187 174 145 127 142 144 146 154 159 163 162 167 176 160 95 136 148 160 174 173 179 152 146 129 105 95 79 93 76 60 71 49 58 97 155 133 75 14 9 131 123 130 122 84 31 34 21 353 65 142 240 263 307 339 97 228 261 229 192 215 195 172 170 155 145 151 166 184 198 214 226
173 173 172 171 168 162 162 171 174 170 167 167 163 160 157 150 211 214 149 145 151 169 173 163 158 161 168 165 158 167 149 122 161 159 157 165 173 183 175 174 156 132 155 158 120 74 79 92 141 70 286 206 176 100 40 357 315 145 154 137 115 105 84 77 236 195 203 238 273 305 337 275 227 255 258 243 210 170 97 130 156 154 150 159 175 191 211 221
172 170 168 168 167 163 170 175 171 167 167 164 160 161 164 159 191 197 162 163 168 162 163 161 158 156 161 162 157 161 147 143 176 169 161 166 169 184 197 195 176 169 169 151 120 112 113 340 176 123 234 212 200 139 130 222 252 213 170 148 144 148 151 202 199 197 221 264 291 290 311 260 263 269 253 252 217 169 128 115 138 148 150 158 169 184 205 210
170 167 165 166 165 165 173 174 170 168 164 160 157 161 177 179 193 186 171 174 156 151 152 152 150 150 162 168 155 157 148 145 174 167 161 170 170 187 202 195 187 180 134 142 156 165 177 251 192 159 169 192 193 178 156 163 183 212 188 151 172 174 165 187 183 181 189 203 313 299 297 193 206 252 224 204 121 139 135 129 134 140 150 159 162 172 182 188
168 167 166 167 169 170 172 171 170 168 161 158 157 164 180 189 193 182 174 157 146 152 148 147 147 151 168 169 150 160 154 145 176 172 169 181 182 186 190 187 190 182 146 161 180 168 184 222 267 305 316 190 184 230 35 121 169 230 182 126 205 207 147 141 179 180 156 110 309 244 252 212 206 244 202 142 106 121 138 146 147 147 158 165 165 168 171 175
164 166 167 170 175 174 170 171 171 166 162 159 159 184 191 196 177 175 166 138 148 151 142 146 152 156 168 167 159 170 136 131 176 180 177 186 189 186 189 188 187 187 173 163 159 156 174 214 325 331 338 5 91 327 9 135 188 206 149 179 220 172 113 114 242 346 112 144 213 186 253 278 275 273 219 139 140 157 155 166 167 166 174 176 170 169 172 173
160 165 170 174 179 176 171 172 169 165 167 168 178 186 189 193 168 161 144 133 142 146 142 151 164 166 168 168 171 171 146 138 177 187 175 182 195 189 191 193 184 190 188 159 165 192 152 125 330 326 17 343 341 341 358 69 102 121 163 209 212 62 76 119 182 356 80 203 222 168 209 248 233 256 287 134 180 207 195 194 184 175 179 179 175 174 175 174
158 163 170 179 182 176 171 172 167 166 170 179 197 193 174 158 222 150 147 140 142 149 154 158 165 176 172 162 168 167 154 156 181 188 171 177 209 188 185 194 187 190 187 148 144 189 142 123 319 339 238 290 344 8 184 279 61 136 206 238 121 132 270 174 180 197 160 198 252 230 220 229 201 202 206 185 202 210 201 199 189 180 180 175 177 181 178 178
156 159 168 180 181 174 171 170 167 167 173 190 198 197 150 137 325 145 147 143 144 156 167 164 161 176 176 164 160 162 167 172 172 176 178 182 217 192 183 181 182 190 188 158 145 179 153 148 225 300 270 229 13 52 189 212 237 127 329 3 79 161 188 180 207 203 156 180 236 258 248 252 231 211 198 198 201 195 190 192 187 188 186 179 183 187 181 181
155 151 160 178 178 173 168 165 163 170 188 196 188 175 127 133 335 136 145 146 150 165 173 170 166 170 172 167 160 163 176 175 168 178 193 175 181 212 193 176 165 182 179 149 142 160 134 134 151 270 303 163 178 216 192 189 187 181 190 153 175 200 123 132 258 213 133 163 218 225 257 262 250 231 189 178 178 176 177 181 186 191 188 185 189 192 185 183
151 132 154 174 175 167 161 158 165 185 197 190 178 165 145 139 138 125 135 142 137 115 158 165 169 169 164 164 165 167 173 171 173 184 189 177 181 224 208 179 159 157 149 130 155 168 121 131 136 141 186 177 204 264 171 158 175 179 190 191 186 174 131 131 262 252 123 159 193 180 238 270 264 307 45 123 123 108 137 159 175 183 183 186 192 194 192 188
151 117 160 173 172 163 157 156 184 195 193 178 160 141 140 137 145 155 135 129 112 65 101 152 166 169 165 167 165 163 166 169 180 185 191 194 192 202 198 175 160 157 156 152 173 166 101 103 111 124 181 190 222 302 90 111 144 145 237 226 170 166 166 171 211 233 208 200 134 137 229 276 267 318 21 66 101 100 122 141 154 166 174 182 187 190 192 190
140 121 155 172 169 162 160 165 186 189 207 171 130 109 135 139 140 153 158 151 128 77 111 128 155 167 173 172 158 161 169 170 183 190 188 187 186 203 195 169 160 159 160 149 154 157 115 104 108 110 63 1 336 17 69 1 121 158 244 221 175 192 198 187 188 184 179 182 144 139 242 269 277 328 19 24 104 137 158 151 149 159 172 180 183 185 187 188
124 123 147 168 167 164 168 183 183 187 192 168 138 117 139 136 142 158 172 169 154 151 137 113 132 159 167 159 148 164 171 169 196 198 180 173 182 333 177 167 164 162 169 175 174 173 170 142 120 121 112 48 334 281 274 248 201 204 228 206 195 185 156 150 170 118 212 211 171 163 228 252 275 316 329 258 202 197 212 188 170 169 176 181 180 181 184 186
130 122 142 162 168 175 189 201 186 184 177 167 162 157 140 110 147 166 164 148 132 143 133 113 131 113 109 123 121 159 175 170 179 178 150 146 171 12 100 171 172 170 175 181 172 164 170 177 145 146 173 185 199 210 203 191 178 221 246 202 198 174 148 163 188 169 236 225 174 175 229 250 280 307 275 229 200 195 199 191 183 176 180 185 182 183 186 187
170 113 136 156 175 196 223 244 192 180 178 175 170 167 159 142 141 160 153 144 74 111 105 85 131 109 109 146 134 161 184 165 90 155 156 133 127 357 95 165 173 166 151 165 164 155 146 210 178 182 199 200 206 207 174 140 145 191 210 202 200 196 187 185 177 191 213 205 192 212 220 239 262 255 229 225 210 207 192 180 185 181 179 187 187 188 191 191
261 158 149 153 178 203 226 237 212 189 183 180 174 171 168 157 142 146 151 172 180 145 88 31 148 146 158 167 157 170 182 151 92 155 161 136 101 38 83 117 143 143 120 157 163 149 103 212 199 201 210 210 209 204 177 161 178 199 202 203 203 198 193 189 196 213 203 182 229 234 212 227 239 197 205 230 217 211 201 192 196 188 180 186 189 190 192 191
311 189 168 160 164 194 211 208 199 192 181 179 176 167 168 162 159 168 164 125 169 170 120 64 192 186 174 168 163 163 168 159 153 165 150 130 122 89 59 29 51 122 35 160 165 145 130 200 203 203 217 225 210 195 182 177 193 205 202 205 205 195 189 194 211 223 204 185 232 232 205 219 230 193 207 221 202 203 208 202 200 189 183 187 190 191 193 192
138 353 173 167 166 197 184 162 173 187 180 177 180 175 175 175 172 172 142 113 164 204 192 174 193 194 177 170 166 160 169 178 183 178 145 127 136 127 106 66 9 4 14 142 173 132 130 201 201 189 217 234 200 177 190 189 199 210 207 206 200 191 194 202 215 225 217 213 235 237 220 230 229 198 213 217 202 203 200 189 190 189 188 189 191 195 197 196
163 355 165 170 152 175 165 146 156 185 183 177 187 190 182 182 178 169 153 158 171 191 201 189 184 180 176 176 176 182 191 183 170 164 143 126 141 161 155 165 156 103 82 120 278 55 142 217 177 151 211 240 197 106 294 196 197 210 213 205 187 186 200 209 219 227 224 229 245 252 262 265 232 198 211 208 184 177 170 177 190 194 193 191 192 199 202 202
173 11 116 170 154 148 164 165 172 184 184 182 191 190 185 189 182 166 169 190 181 180 191 185 169 164 170 182 191 202 194 176 162 165 163 159 173 182 175 157 142 128 144 185 164 129 158 198 40 102 188 239 302 52 87 51 35 274 243 209 184 184 198 207 216 220 210 218 238 247 256 258 231 190 202 192 168 167 176 185 190 194 197 199 200 204 207 208
160 115 108 162 156 96 170 177 179 187 193 192 191 187 187 191 180 164 167 200 193 186 187 176 154 148 171 192 199 193 160 148 160 174 172 169 174 174 169 161 156 153 163 174 173 163 150 138 86 129 184 243 325 331 127 76 37 267 242 209 192 193 200 204 218 223 211 208 218 224 235 242 218 177 196 197 173 179 188 190 194 202 204 207 209 209 210 212